{"data":{"norad_id":68640,"intl_designator":"2026-075E","name":"QIANFAN-113","alt_names":[],"object_type":"PAYLOAD","status":"ACTIVE","operator":null,"country":"PRC","launch_date":"2026-04-07","launch_site_code":"WSC","launch_vehicle":null,"mission":null,"orbit_class":"UNKNOWN","rcs_meters":null,"size_class":null,"mass_kg":null,"dimensions":null,"purposes":[],"wikipedia_slug":null,"has_3d_model":false,"image_url":null,"decayed_at":null,"tle_current":{"epoch":"2026-09-20T04:03:19.785600Z","epoch_age_seconds":91812,"freshness":"FRESH","line1":"1 68640U 26075E   26263.16897900  .00000060  00000+0  74452-4 0  9994","line2":"2 68640  88.9868 311.3077 0002287  94.0748 266.0665 13.51020290 22633","mean_motion":13.5102029,"eccentricity":0.0002287,"inclination_deg":88.9868,"raan_deg":311.3077,"arg_perigee_deg":94.0748,"mean_anomaly_deg":266.0665,"bstar":7.4452e-5,"rev_number":2263,"period_min":106.58611204129,"perigee_km":1066.8039796367,"apogee_km":1070.2100746147,"semimajor_km":7446.6440271257,"source":"CELESTRAK","updated_at":"2026-09-20T09:00:24.368532Z"}}}